1487386800.05,16263,12.06,73176.3,-12.87,-36.13,-35.53,0,*6B
1487386801.29,16264,12.06,73182.5,-12.85,-35.71,-35.41,0,*6A
1487386802.53,16265,12.06,73176.3,-12.87,-35.47,-35.17,0,*6F
1487386803.77,16266,12.06,73178.5,-12.85,-35.41,-35.13,0,*6C
1487386804.98,16267,12.06,73176.5,-12.85,-35.59,-35.47,0,*65
1487386806.21,16268,12.06,73176.8,-12.85,-35.65,-35.71,0,*60
1487386807.43,16269,12.06,73178.0,-12.85,-35.29,-35.71,0,*69
1487386808.72,16270,12.06,73176.8,-12.87,-35.65,-36.25,0,*69
1487386809.96,16271,12.06,73182.3,-12.85,-35.59,-36.25,0,*65
1487386811.17,16272,12.06,73178.8,-12.81,-35.59,-36.43,0,*62
1487386812.43,16273,12.06,73180.0,-12.81,-35.35,-36.37,0,*6A
1487386813.65,16274,12.06,73182.0,-12.85,-35.89,-36.73,0,*6E
1487386814.91,16275,12.06,73182.3,-12.85,-35.83,-36.79,0,*6F
1487386816.17,16276,12.06,73176.0,-12.85,-35.65,-36.79,0,*64
1487386817.38,16277,12.06,73180.0,-12.85,-35.89,-36.97,0,*67
1487386818.6,16278,12.06,73178.3,-12.85,-36.07,-36.97,0,*6D
1487386819.82,16279,12.06,73178.8,-12.85,-36.07,-37.03,0,*60
1487386821.06,16280,12.06,73182.5,-12.87,-36.31,-37.27,0,*67
1487386822.33,16281,12.06,73178.3,-12.87,-36.31,-37.21,0,*60
1487386823.54,16282,12.06,73168.5,-12.85,-36.07,-36.97,0,*68
1487386824.78,16283,12.06,73168.8,-12.85,-36.01,-36.79,0,*6F
1487386826.05,16284,12.06,73178.3,-12.87,-36.31,-37.09,0,*6F
1487386827.32,16285,12.06,73184.0,-12.85,-36.25,-37.21,0,*63
1487386828.56,16286,12.06,73184.3,-12.85,-36.25,-37.03,0,*60
1487386829.8,16287,12.06,73182.3,-12.85,-36.07,-36.79,0,*6D
1487386831.04,16288,12.06,73178.0,-12.85,-36.25,-37.03,0,*6E
1487386832.29,16289,12.06,73176.0,-12.85,-36.37,-37.03,0,*6C
1487386833.5,16290,12.06,73178.0,-12.85,-36.43,-37.03,0,*67
1487386834.74,16291,12.06,73178.0,-12.85,-36.37,-37.03,0,*65
1487386836.01,16292,12.06,73176.3,-12.87,-36.49,-37.03,0,*6D
1487386837.25,16293,12.06,73184.5,-12.87,-36.43,-37.03,0,*66
1487386838.5,16294,12.06,73180.8,-12.87,-35.89,-36.43,0,*61
1487386839.77,16295,12.06,73178.0,-12.87,-35.77,-36.25,0,*61
1487386841.02,16296,12.06,73178.5,-12.87,-35.89,-36.43,0,*63
1487386842.28,16297,12.06,73178.8,-12.87,-35.71,-36.13,0,*60
1487386843.52,16298,12.06,73176.3,-12.85,-35.83,-36.19,0,*6A
1487386844.79,16299,12.06,73180.3,-12.87,-36.13,-36.43,0,*6C
1487386846.01,16300,12.06,73178.0,-12.85,-36.07,-36.55,0,*6D
1487386847.26,16301,12.06,73178.0,-12.87,-36.07,-36.43,0,*69
1487386848.53,16302,12.06,73182.8,-12.87,-35.95,-36.43,0,*62
1487386849.82,16303,12.06,73182.0,-12.87,-36.13,-36.61,0,*6E
1487386851.06,16304,12.06,73182.5,-12.87,-36.07,-36.43,0,*6C
1487386852.29,16305,12.06,73180.3,-12.85,-35.53,-36.07,0,*6D
1487386853.51,16306,12.06,73176.8,-12.89,-35.89,-36.43,0,*65
1487386854.78,16307,12.06,73178.3,-12.87,-35.77,-36.49,0,*61
1487386856.02,16308,12.06,73182.3,-12.87,-35.77,-36.31,0,*61
1487386857.26,16309,12.06,73178.5,-12.87,-35.47,-36.07,0,*66
1487386858.51,16310,12.06,73178.5,-12.87,-35.77,-36.43,0,*6D
1487386859.78,16311,12.06,73182.5,-12.87,-35.89,-36.61,0,*6D
1487386861.04,16312,12.06,73180.0,-12.85,-35.83,-36.37,0,*65
1487386862.32,16313,12.06,73176.8,-12.87,-35.77,-36.25,0,*6E
1487386863.58,16314,12.06,73178.0,-12.87,-35.89,-36.13,0,*6D
1487386864.86,16315,12.06,73180.3,-12.87,-35.71,-35.95,0,*66
1487386866.13,16316,12.06,73182.3,-12.89,-35.65,-35.95,0,*6E
1487386867.37,16317,12.06,73178.0,-12.87,-35.89,-36.07,0,*6B
1487386868.62,16318,12.06,73176.5,-12.87,-35.71,-35.77,0,*67
1487386869.9,16319,12.06,73180.0,-12.87,-35.53,-35.65,0,*65
1487386871.13,16320,12.06,73180.8,-12.85,-35.71,-35.65,0,*6D
1487386872.4,16321,12.06,73182.5,-12.85,-35.23,-35.23,0,*69
1487386873.64,16322,12.06,73180.8,-12.87,-35.13,-35.01,0,*6B
1487386874.9,16323,12.06,73180.8,-12.87,-35.17,-35.35,0,*69
1487386876.17,16324,12.06,73180.5,-12.87,-35.17,-35.35,0,*6E
1487386877.42,16325,12.06,73180.3,-12.87,-35.01,-35.29,0,*65
1487386878.64,16326,12.06,73178.8,-12.85,-34.41,-35.13,0,*68
1487386879.88,16327,12.06,73178.3,-12.85,-34.41,-35.35,0,*6D
1487386881.14,16328,12.06,73180.3,-12.87,-34.25,-35.35,0,*62
1487386882.39,16329,12.06,73180.5,-12.89,-34.25,-35.53,0,*6D
1487386883.65,16330,12.06,73182.0,-12.87,-33.89,-35.47,0,*6F
1487386884.87,16331,12.06,73178.3,-12.89,-33.55,-35.47,0,*61
1487386886.11,16332,12.06,73176.5,-12.89,-33.55,-35.65,0,*62
1487386887.35,16333,12.06,73174.5,-12.89,-32.97,-35.47,0,*6C
1487386888.64,16334,12.06,73174.3,-12.91,-32.85,-35.53,0,*64
1487386889.88,16335,12.06,73176.8,-12.89,-32.63,-35.47,0,*61
1487386891.1,16336,12.06,73178.3,-12.89,-32.23,-35.29,0,*6E
1487386892.35,16337,12.06,73176.3,-12.89,-32.19,-35.29,0,*66
1487386893.57,16338,12.06,73176.5,-12.89,-32.01,-35.13,0,*69
1487386894.86,16339,12.06,73178.5,-12.87,-31.91,-34.95,0,*63
1487386896.13,16340,12.06,73178.3,-12.87,-31.85,-34.59,0,*68
1487386897.35,16341,12.06,73178.3,-12.85,-31.79,-34.59,0,*68
1487386898.61,16342,12.06,73180.5,-12.87,-31.91,-34.59,0,*6F
1487386899.85,16343,12.06,73178.8,-12.87,-32.01,-34.41,0,*6D
1487386901.09,16344,12.06,73180.0,-12.85,-32.01,-34.35,0,*6B
1487386902.31,16345,12.06,73176.5,-12.85,-32.01,-34.41,0,*69
1487386903.54,16346,12.06,73176.0,-12.85,-32.19,-34.41,0,*63
1487386904.74,16347,12.06,73172.8,-12.85,-32.35,-34.41,0,*6C
1487386905.98,16348,12.06,73172.8,-12.85,-32.35,-34.53,0,*60
1487386907.18,16349,12.06,73178.3,-12.85,-32.35,-34.59,0,*6B
1487386908.45,16350,12.06,73178.3,-12.85,-32.19,-34.53,0,*67
1487386909.66,16351,12.06,73180.0,-12.85,-32.23,-34.71,0,*6F
1487386910.87,16352,12.06,73176.0,-12.85,-32.23,-34.71,0,*6C
1487386912.09,16353,12.06,73178.8,-12.85,-32.39,-34.77,0,*60
1487386913.31,16354,12.06,73176.5,-12.85,-32.51,-34.77,0,*69
1487386914.57,16355,12.06,73182.0,-12.81,-32.79,-35.07,0,*60
1487386915.83,16356,12.06,73182.0,-12.81,-32.97,-35.23,0,*65
1487386917.07,16357,12.06,73180.0,-12.81,-33.21,-35.23,0,*68
1487386918.36,16358,12.06,73186.0,-12.79,-33.61,-35.23,0,*64
1487386919.57,16359,12.06,73186.0,-12.81,-33.55,-34.89,0,*64
1487386920.82,16360,12.06,73180.8,-12.81,-33.61,-34.83,0,*63
1487386922.03,16361,12.06,73176.8,-12.81,-33.95,-35.17,0,*65
1487386923.3,16362,12.06,73178.5,-12.81,-34.31,-35.41,0,*6C
1487386924.58,16363,12.06,73182.5,-12.79,-34.53,-35.59,0,*67
1487386925.85,16364,12.06,73182.8,-12.81,-34.65,-35.65,0,*6D
1487386927.15,16365,12.06,73182.5,-12.79,-34.53,-35.53,0,*6B
1487386928.39,16366,12.06,73176.3,-12.81,-34.47,-35.41,0,*69
1487386929.65,16367,12.06,73178.3,-12.81,-34.83,-35.77,0,*65
1487386930.93,16368,12.06,73180.0,-12.79,-35.01,-35.95,0,*6A
1487386932.17,16369,12.06,73180.3,-12.79,-35.01,-35.59,0,*6B
1487386933.41,16370,12.06,73178.3,-12.81,-34.89,-35.53,0,*6F
1487386934.62,16371,12.06,73178.0,-12.81,-35.17,-35.59,0,*62
1487386935.9,16372,12.06,73178.8,-12.79,-35.01,-35.41,0,*68
1487386937.17,16373,12.06,73178.3,-12.79,-35.01,-35.53,0,*6A
1487386938.44,16374,12.06,73180.3,-12.81,-34.83,-35.53,0,*61
1487386939.71,16375,12.06,73182.0,-12.81,-34.83,-35.65,0,*65
1487386940.94,16376,12.06,73180.5,-12.81,-34.47,-35.77,0,*6D
1487386942.22,16377,12.06,73180.5,-12.81,-34.31,-35.95,0,*61
1487386943.44,16378,12.06,73180.8,-12.81,-34.13,-36.01,0,*60
1487386944.68,16379,12.06,73182.0,-12.81,-34.13,-36.13,0,*62
1487386945.95,16380,12.06,73180.8,-12.79,-34.31,-36.19,0,*69
1487386947.23,16381,12.06,73182.8,-12.79,-34.53,-36.55,0,*64
1487386948.5,16382,12.06,73178.5,-12.81,-34.53,-36.37,0,*64
1487386949.75,16383,12.06,73182.0,-12.81,-34.47,-36.49,0,*69
1487386951.01,16384,12.06,73180.5,-12.81,-34.83,-36.37,0,*6F
1487386952.26,16385,12.06,73176.0,-12.81,-34.71,-36.49,0,*6A
1487386953.53,16386,12.06,73174.3,-12.79,-35.01,-36.79,0,*6B
1487386954.76,16387,12.06,73176.5,-12.81,-35.17,-36.79,0,*6A
1487386956.02,16388,12.06,73176.8,-12.81,-35.35,-36.79,0,*65
1487386957.28,16389,12.06,73180.8,-12.79,-35.41,-36.73,0,*6A
1487386958.52,16390,12.06,73182.5,-12.81,-35.59,-36.79,0,*66
1487386959.78,16391,12.06,73182.5,-12.79,-35.65,-36.73,0,*65
1487386961.02,16392,12.06,73180.3,-12.81,-35.77,-36.91,0,*6E
1487386962.23,16393,12.06,73180.5,-12.81,-36.01,-36.97,0,*6B
1487386963.45,16394,12.06,73184.0,-12.81,-36.01,-36.97,0,*6C
1487386964.69,16395,12.06,73182.8,-12.81,-36.01,-36.91,0,*6B
1487386965.95,16396,12.06,73184.5,-12.81,-35.95,-36.79,0,*60
1487386967.17,16397,12.06,73182.5,-12.81,-35.77,-36.73,0,*67
1487386968.44,16398,12.06,73184.8,-12.81,-35.95,-36.79,0,*6E
1487386969.68,16399,12.06,73180.3,-12.81,-35.83,-36.55,0,*66
1487386970.9,16400,12.06,73180.3,-12.81,-36.01,-36.67,0,*69
1487386972.14,16401,12.06,73178.8,-12.85,-36.07,-36.61,0,*6C
1487386973.39,16402,12.06,73186.0,-12.85,-36.25,-36.73,0,*6C
1487386974.63,16403,12.06,73180.5,-12.85,-36.25,-36.43,0,*6E
1487386975.87,16404,12.06,73180.3,-12.85,-36.07,-36.37,0,*6A
1487386977.13,16405,12.06,73182.0,-12.81,-36.13,-36.37,0,*6A
1487386978.37,16406,12.06,73178.5,-12.81,-36.19,-36.49,0,*6A
1487386979.62,16407,12.06,73180.8,-12.81,-36.13,-36.37,0,*68
1487386980.84,16408,12.06,73188.0,-12.81,-36.01,-36.19,0,*68
1487386982.14,16409,12.06,73182.0,-12.87,-35.95,-36.25,0,*6E
1487386983.38,16410,12.06,73180.3,-12.81,-35.83,-36.31,0,*62
1487386984.65,16411,12.06,73184.0,-12.87,-36.31,-36.61,0,*6A
1487386985.89,16412,12.06,73178.8,-12.87,-36.07,-36.43,0,*6C
1487386987.13,16413,12.06,73180.0,-12.85,-35.65,-36.01,0,*6E
1487386988.38,16414,12.06,73182.0,-12.87,-35.77,-36.31,0,*6B
1487386989.6,16415,12.06,73182.0,-12.85,-35.89,-36.55,0,*6B
1487386990.87,16416,12.06,73180.8,-12.85,-35.83,-36.61,0,*65
1487386992.09,16417,12.06,73180.0,-12.85,-35.71,-36.55,0,*6E
1487386993.34,16418,12.06,73180.5,-12.87,-35.71,-36.67,0,*62
1487386994.58,16419,12.06,73186.0,-12.85,-35.47,-36.61,0,*62
1487386995.79,16420,12.06,73180.3,-12.85,-35.59,-36.73,0,*64
1487386997.0,16421,12.06,73184.0,-12.85,-35.71,-36.85,0,*66
1487386998.26,16422,12.06,73182.0,-12.87,-35.71,-36.91,0,*62
1487386999.53,16423,12.06,73182.3,-12.87,-35.65,-37.03,0,*6C
1487387000.79,16424,12.06,73182.0,-12.87,-35.71,-37.21,0,*6E
1487387002.0,16425,12.06,73182.5,-12.85,-35.47,-36.85,0,*67
1487387003.29,16426,12.06,73186.8,-12.87,-35.65,-37.09,0,*63
1487387004.53,16427,12.06,73182.8,-12.87,-35.71,-37.03,0,*6D
1487387005.81,16428,12.06,73182.3,-12.87,-35.53,-36.91,0,*68
1487387007.07,16429,12.06,73186.0,-12.87,-35.65,-36.85,0,*69
1487387008.33,16430,12.06,73182.3,-12.87,-35.53,-36.85,0,*64
1487387009.59,16431,12.06,73180.0,-12.87,-35.65,-36.67,0,*6C
1487387010.86,16432,12.06,73184.3,-12.87,-35.47,-36.49,0,*63
1487387012.12,16433,12.06,73192.0,-12.87,-35.71,-36.61,0,*6D
1487387013.39,16434,12.06,73192.0,-12.87,-35.65,-36.43,0,*6F
1487387014.62,16435,12.06,73184.3,-12.85,-35.23,-36.07,0,*6E
1487387015.87,16436,12.06,73182.8,-12.85,-35.41,-36.01,0,*6F
1487387017.14,16437,12.06,73178.0,-12.87,-35.47,-35.95,0,*64
1487387018.42,16438,12.06,73182.3,-12.87,-35.53,-35.65,0,*61
1487387019.71,16439,12.06,73178.0,-12.87,-35.53,-35.35,0,*65
1487387020.97,16440,12.06,73176.5,-12.87,-35.65,-35.01,0,*69
1487387022.21,16441,12.06,73172.3,-12.87,-35.89,-34.77,0,*6A
1487387023.45,16442,12.06,73168.5,-12.89,-35.35,-33.83,0,*6C
1487387024.69,16443,12.06,73172.0,-12.89,-35.13,-33.49,0,*6F
1487387025.93,16444,12.06,73172.8,-12.87,-35.01,-33.15,0,*6C
1487387027.21,16445,12.06,73172.0,-12.87,-34.65,-32.91,0,*63
1487387028.49,16446,12.06,73172.5,-12.87,-34.77,-33.27,0,*6F
1487387029.73,16447,12.06,73172.8,-12.87,-34.25,-32.91,0,*65
1487387031.0,16448,12.06,73172.5,-12.85,-34.01,-32.85,0,*6B
1487387032.22,16449,12.06,73182.0,-12.85,-33.83,-33.03,0,*68
1487387033.52,16450,12.06,73182.8,-12.87,-33.73,-33.49,0,*63
1487387034.78,16451,12.06,73180.0,-12.85,-33.31,-33.77,0,*6B
1487387035.99,16452,12.06,73178.3,-12.85,-32.91,-33.95,0,*6F
1487387037.25,16453,12.06,73184.0,-12.85,-32.85,-34.35,0,*66
1487387038.46,16454,12.06,73182.3,-12.85,-32.57,-34.41,0,*6D
1487387039.73,16455,12.06,73182.3,-12.85,-32.63,-34.95,0,*62
1487387041.0,16456,12.06,73180.5,-12.87,-32.91,-35.53,0,*65
1487387042.26,16457,12.06,73178.5,-12.87,-32.91,-35.53,0,*64
1487387043.5,16458,12.06,73180.5,-12.87,-33.37,-36.07,0,*64
1487387044.77,16459,12.06,73182.0,-12.85,-33.61,-36.25,0,*64
1487387046.04,16460,12.06,73174.8,-12.87,-34.19,-36.73,0,*67
1487387047.26,16461,12.06,73174.3,-12.85,-34.41,-36.73,0,*69
1487387048.55,16462,12.06,73182.0,-12.87,-34.83,-36.91,0,*6A
1487387049.85,16463,12.06,73176.5,-12.87,-34.95,-36.79,0,*6A
1487387051.11,16464,12.06,73172.3,-12.87,-35.13,-36.79,0,*62
1487387052.38,16465,12.06,73176.5,-12.87,-35.13,-36.61,0,*6A
1487387053.64,16466,12.06,73176.3,-12.87,-35.47,-36.79,0,*61
1487387054.92,16467,12.06,73174.0,-12.87,-35.65,-36.79,0,*60
1487387056.19,16468,12.06,73176.5,-12.87,-35.77,-36.79,0,*6C
1487387057.43,16469,12.06,73176.3,-12.87,-35.71,-36.43,0,*62
1487387058.72,16470,12.06,73178.8,-12.87,-35.65,-36.13,0,*6A
1487387059.98,16471,12.06,73170.0,-12.87,-35.17,-35.53,0,*69
1487387061.25,16472,12.06,73166.8,-12.87,-35.35,-35.77,0,*6C
1487387062.53,16473,12.06,73160.0,-12.87,-35.65,-35.89,0,*69
1487387063.82,16474,12.06,73160.5,-12.87,-35.65,-35.95,0,*63
1487387065.03,16475,12.06,73172.3,-12.89,-35.17,-35.71,0,*63
1487387066.27,16476,12.06,73178.3,-12.89,-35.13,-35.65,0,*61
1487387067.52,16477,12.06,73174.8,-12.87,-35.29,-35.89,0,*65
1487387068.8,16478,12.06,73174.3,-12.87,-35.29,-35.95,0,*67
1487387070.05,16479,12.06,73176.0,-12.87,-35.17,-35.77,0,*67
1487387071.29,16480,12.06,73170.3,-12.87,-35.29,-36.07,0,*68
1487387072.5,16481,12.06,73170.5,-12.89,-35.47,-36.43,0,*6F
1487387073.77,16482,12.06,73168.8,-12.89,-35.95,-36.79,0,*6A
1487387075.01,16483,12.06,73174.3,-12.89,-35.89,-36.61,0,*6F
1487387076.27,16484,12.06,73180.0,-12.89,-35.95,-36.79,0,*6C
1487387077.52,16485,12.06,73178.8,-12.89,-35.95,-36.67,0,*62
1487387078.78,16486,12.06,73182.3,-12.91,-36.13,-36.85,0,*69
1487387080.02,16487,12.06,73176.8,-12.89,-36.31,-36.91,0,*64
1487387081.23,16488,12.06,73180.5,-12.89,-36.31,-36.85,0,*6E
1487387082.48,16489,12.06,73190.8,-12.91,-36.31,-36.73,0,*6F
1487387083.7,16490,12.06,73184.5,-12.89,-36.07,-36.55,0,*6F
1487387084.97,16491,12.06,73184.8,-12.89,-35.95,-36.49,0,*6B
1487387086.21,16492,12.06,73176.0,-12.91,-36.01,-36.67,0,*63
1487387087.48,16493,12.06,73176.8,-12.89,-36.25,-36.79,0,*62
1487387088.72,16494,12.06,73174.0,-12.89,-36.07,-36.61,0,*6C
1487387089.96,16495,12.06,73170.5,-12.89,-36.31,-36.79,0,*61
1487387091.17,16496,12.06,73170.3,-12.89,-36.31,-36.85,0,*61
1487387092.43,16497,12.06,73184.5,-12.89,-36.13,-36.79,0,*63
1487387093.67,16498,12.06,73182.3,-12.89,-36.07,-36.49,0,*6A
1487387094.91,16499,12.06,73182.5,-12.89,-35.95,-36.43,0,*69
1487387096.17,16500,12.06,73178.8,-12.89,-36.13,-36.79,0,*6C
1487387097.38,16501,12.06,73178.0,-12.89,-36.31,-36.85,0,*6E
1487387098.63,16502,12.06,73186.3,-12.91,-36.31,-36.73,0,*6D
1487387099.88,16503,12.06,73182.5,-12.91,-36.01,-36.55,0,*6B
1487387101.09,16504,12.06,73182.5,-12.89,-35.89,-36.43,0,*61
1487387102.34,16505,12.06,73180.3,-12.89,-35.95,-36.43,0,*6D
1487387103.6,16506,12.06,73180.3,-12.91,-36.31,-36.49,0,*60
1487387104.87,16507,12.06,73178.3,-12.91,-36.49,-36.85,0,*6E
1487387106.09,16508,12.06,73180.3,-12.89,-36.43,-36.67,0,*6E
1487387107.35,16509,12.06,73180.0,-12.89,-36.49,-36.79,0,*6A
1487387108.62,16510,12.06,73178.8,-12.91,-36.01,-36.49,0,*64
1487387109.83,16511,12.06,73178.8,-12.89,-36.07,-36.43,0,*60
1487387111.08,16512,12.06,73176.3,-12.91,-36.31,-36.73,0,*6C
1487387112.35,16513,12.06,73178.8,-12.91,-36.37,-36.73,0,*6B
1487387113.59,16514,12.06,73180.8,-12.89,-36.13,-36.67,0,*66
1487387114.83,16515,12.06,73182.8,-12.89,-36.31,-36.79,0,*68
1487387116.07,16516,12.06,73176.5,-12.91,-36.31,-36.85,0,*61
1487387117.36,16517,12.06,73178.8,-12.91,-36.37,-36.91,0,*63
1487387118.65,16518,12.06,73182.0,-12.91,-36.37,-36.91,0,*6C
1487387119.94,16519,12.06,73184.0,-12.91,-36.37,-36.91,0,*6D
1487387121.18,16520,12.06,73182.8,-12.91,-36.31,-36.85,0,*64
1487387122.44,16521,12.06,73178.8,-12.91,-36.31,-36.91,0,*60
1487387123.71,16522,12.06,73178.0,-12.91,-36.37,-36.97,0,*63
1487387125.0,16523,12.06,73176.5,-12.91,-36.37,-37.09,0,*64
1487387126.24,16524,12.06,73178.8,-12.91,-36.01,-36.73,0,*6A
1487387127.48,16525,12.06,73180.0,-12.91,-36.31,-36.85,0,*61
1487387128.75,16526,12.06,73182.0,-12.91,-36.19,-36.91,0,*6D
1487387130.01,16527,12.06,73180.8,-12.91,-36.19,-36.91,0,*6C
1487387131.3,16528,12.06,73188.0,-12.91,-36.13,-36.91,0,*69
1487387132.54,16529,12.06,73184.8,-12.91,-35.59,-36.31,0,*6F
1487387133.81,16530,12.06,73182.8,-12.91,-35.83,-36.67,0,*63
1487387135.05,16531,12.06,73180.5,-12.91,-36.01,-36.85,0,*67
1487387136.32,16532,12.06,73182.8,-12.91,-35.95,-36.55,0,*67
1487387137.56,16533,12.06,73178.3,-12.91,-36.01,-36.85,0,*65
1487387138.83,16534,12.06,73178.8,-12.91,-36.19,-36.91,0,*6E
1487387140.09,16535,12.06,73176.8,-12.91,-36.19,-36.91,0,*6F
1487387141.35,16536,12.06,73180.8,-12.91,-36.13,-36.85,0,*63
1487387142.64,16537,12.06,73180.0,-12.91,-35.95,-36.79,0,*6C
1487387143.9,16538,12.06,73180.8,-12.91,-36.13,-36.73,0,*64
1487387145.14,16539,12.06,73180.0,-12.91,-36.19,-36.85,0,*66
1487387146.38,16540,12.06,73182.0,-12.91,-36.19,-36.73,0,*61
1487387147.65,16541,12.06,73178.3,-12.95,-36.07,-36.79,0,*61
1487387148.89,16542,12.06,73182.0,-12.91,-36.31,-36.85,0,*60
1487387150.16,16543,12.06,73182.5,-12.91,-36.01,-36.61,0,*68
1487387151.4,16544,12.06,73180.0,-12.91,-35.77,-36.19,0,*62
1487387152.65,16545,12.06,73178.8,-12.91,-36.19,-36.67,0,*61
1487387153.93,16546,12.06,73180.5,-12.95,-36.25,-36.55,0,*68
1487387155.17,16547,12.06,73184.0,-12.91,-36.31,-36.85,0,*65
1487387156.43,16548,12.06,73180.8,-12.91,-36.37,-36.85,0,*6C
1487387157.71,16549,12.06,73182.0,-12.95,-36.25,-36.73,0,*63
1487387158.96,16550,12.06,73180.5,-12.95,-36.19,-36.73,0,*64
1487387160.24,16551,12.06,73180.0,-12.95,-36.37,-36.73,0,*69
1487387161.5,16552,12.06,73178.0,-12.91,-36.37,-36.85,0,*67
1487387162.79,16553,12.06,73184.0,-12.95,-36.37,-36.79,0,*61
1487387164.05,16554,12.06,73182.0,-12.95,-36.01,-36.43,0,*6A
1487387165.32,16555,12.06,73178.0,-12.95,-36.43,-36.91,0,*62
1487387166.59,16556,12.06,73174.0,-12.95,-36.43,-36.79,0,*67
1487387167.86,16557,12.06,73176.0,-12.95,-36.43,-36.79,0,*66
1487387169.13,16558,12.06,73172.0,-12.95,-36.43,-36.79,0,*69
1487387170.41,16559,12.06,73176.5,-12.95,-36.43,-36.61,0,*61
1487387171.68,16560,12.06,73176.0,-12.95,-36.19,-36.37,0,*67
1487387172.95,16561,12.06,73174.8,-12.95,-36.37,-36.73,0,*6A
1487387174.19,16562,12.06,73176.3,-12.97,-36.43,-36.79,0,*62
1487387175.46,16563,12.06,73178.8,-12.97,-36.37,-36.61,0,*69
1487387176.71,16564,12.06,73180.8,-12.97,-36.25,-36.43,0,*6D
1487387177.93,16565,12.06,73180.3,-12.97,-36.01,-36.19,0,*65
1487387179.18,16566,12.06,73174.8,-12.97,-36.07,-36.25,0,*6F
1487387180.39,16567,12.06,73170.0,-12.97,-36.19,-36.43,0,*61
1487387181.63,16568,12.06,73172.0,-12.97,-36.19,-36.37,0,*6D
1487387182.87,16569,12.06,73178.3,-12.97,-35.83,-36.07,0,*6F
1487387184.09,16570,12.06,73174.3,-12.97,-35.77,-36.19,0,*63
1487387185.39,16571,12.06,73172.3,-12.99,-35.95,-36.25,0,*6F
1487387186.69,16572,12.06,73170.8,-12.95,-35.83,-36.37,0,*64
1487387187.93,16573,12.06,73174.5,-12.97,-35.89,-36.37,0,*6D
1487387189.15,16574,12.06,73172.8,-12.97,-35.77,-36.43,0,*68
1487387190.42,16575,12.06,73172.8,-12.95,-35.65,-36.19,0,*67
1487387191.63,16576,12.06,73172.0,-12.97,-35.59,-36.19,0,*69
1487387192.89,16577,12.06,73182.5,-12.97,-35.65,-36.37,0,*6B
1487387194.14,16578,12.06,73182.5,-12.97,-35.77,-36.25,0,*64
1487387195.37,16579,12.06,73186.3,-12.97,-35.47,-36.01,0,*60
1487387196.64,16580,12.06,73186.3,-12.95,-35.41,-36.01,0,*62
1487387197.88,16581,12.06,73184.3,-12.95,-35.59,-36.07,0,*6C
1487387199.13,16582,12.06,73174.8,-12.95,-35.77,-36.19,0,*6C
1487387200.36,16583,12.06,73182.0,-12.97,-36.01,-36.55,0,*65
1487387201.64,16584,12.06,73178.8,-12.95,-35.77,-36.25,0,*65
1487387202.92,16585,12.06,73182.8,-12.95,-35.77,-36.25,0,*64
1487387204.14,16586,12.06,73182.8,-12.97,-35.89,-36.43,0,*64
1487387205.41,16587,12.06,73180.3,-12.95,-35.65,-36.19,0,*6A
1487387206.7,16588,12.06,73180.5,-12.95,-35.83,-36.37,0,*61
1487387207.98,16589,12.06,73182.3,-12.95,-35.89,-36.25,0,*69
1487387209.24,16590,12.06,73178.3,-12.95,-36.07,-36.55,0,*63
1487387210.51,16591,12.06,73178.0,-12.95,-35.89,-36.37,0,*63
1487387211.77,16592,12.06,73176.3,-12.95,-35.89,-36.55,0,*64
1487387213.02,16593,12.06,73182.3,-12.95,-36.01,-36.43,0,*61
1487387214.26,16594,12.06,73182.5,-12.97,-35.89,-36.37,0,*64
1487387215.51,16595,12.06,73178.3,-12.95,-35.77,-36.07,0,*65
1487387216.78,16596,12.06,73180.3,-12.95,-35.77,-36.37,0,*65
1487387218.07,16597,12.06,73178.5,-12.91,-35.83,-36.49,0,*62
1487387219.34,16598,12.06,73180.5,-12.91,-36.01,-36.49,0,*64
1487387220.59,16599,12.06,73180.8,-12.95,-36.01,-36.43,0,*6B
1487387221.86,16600,12.06,73186.0,-12.95,-36.07,-36.61,0,*6E
1487387223.12,16601,12.06,73184.0,-12.95,-35.59,-35.89,0,*62
1487387224.39,16602,12.06,73182.3,-12.95,-35.65,-36.01,0,*6D
1487387225.64,16603,12.06,73176.3,-12.95,-35.89,-36.19,0,*67
1487387226.91,16604,12.06,73180.8,-12.95,-35.83,-36.19,0,*6A
1487387228.17,16605,12.06,73180.8,-12.95,-36.07,-36.55,0,*6C
1487387229.42,16606,12.06,73182.0,-12.95,-35.89,-36.19,0,*62
1487387230.69,16607,12.06,73184.5,-12.95,-36.07,-36.37,0,*6A
1487387231.96,16608,12.06,73180.5,-12.95,-36.01,-36.37,0,*63
1487387233.23,16609,12.06,73184.0,-12.95,-35.83,-36.07,0,*68
1487387234.5,16610,12.06,73182.5,-12.95,-35.83,-36.07,0,*60
1487387235.78,16611,12.06,73178.5,-12.95,-35.83,-36.19,0,*6E
1487387237.05,16612,12.06,73178.0,-12.95,-36.19,-36.37,0,*61
1487387238.29,16613,12.06,73180.3,-12.97,-36.01,-36.25,0,*68
1487387239.51,16614,12.06,73178.3,-12.97,-35.77,-36.07,0,*6D
1487387240.73,16615,12.06,73176.8,-12.97,-35.59,-36.01,0,*66
1487387242.0,16616,12.06,73180.3,-12.91,-36.01,-36.49,0,*61
1487387243.25,16617,12.06,73182.5,-12.95,-36.01,-36.43,0,*6E
1487387244.5,16618,12.06,73182.0,-12.95,-36.01,-36.43,0,*61
1487387245.76,16619,12.06,73182.8,-12.95,-35.59,-35.89,0,*6B
1487387247.01,16620,12.06,73182.5,-12.95,-35.77,-36.19,0,*67
1487387248.26,16621,12.06,73184.5,-12.95,-35.77,-36.19,0,*66
1487387249.51,16622,12.06,73180.3,-12.95,-36.01,-36.55,0,*6F
1487387250.77,16623,12.06,73180.8,-12.95,-36.19,-36.55,0,*67
1487387252.02,16624,12.06,73186.5,-12.95,-36.01,-36.55,0,*69
1487387253.28,16625,12.06,73184.8,-12.95,-36.07,-36.55,0,*6E
1487387254.55,16626,12.06,73186.5,-12.95,-35.65,-36.07,0,*6D
1487387255.82,16627,12.06,73186.3,-12.99,-35.95,-36.43,0,*6F
1487387257.08,16628,12.06,73182.5,-12.97,-35.83,-36.37,0,*6A
1487387258.35,16629,12.06,73182.5,-12.99,-35.71,-36.13,0,*6E
1487387259.62,16630,12.06,73184.8,-12.99,-35.95,-36.43,0,*69
1487387260.85,16631,12.06,73184.0,-12.97,-36.01,-36.55,0,*6F
1487387262.1,16632,12.06,73186.8,-12.97,-35.77,-36.25,0,*69
1487387263.37,16633,12.06,73182.3,-12.99,-35.95,-36.43,0,*6A
1487387264.64,16634,12.06,73178.8,-12.97,-35.65,-36.25,0,*6C
1487387265.86,16635,12.06,73180.5,-12.97,-35.77,-36.19,0,*61
1487387267.08,16636,12.06,73184.5,-12.97,-36.01,-36.55,0,*68
1487387268.31,16637,12.06,73180.8,-12.97,-36.07,-36.55,0,*6F
1487387269.56,16638,12.06,73186.0,-12.95,-35.89,-36.43,0,*60
1487387270.8,16639,12.06,73186.0,-12.97,-35.71,-36.13,0,*61
1487387272.04,16640,12.06,73182.8,-12.97,-35.89,-36.37,0,*6E
1487387273.31,16641,12.06,73186.3,-12.99,-35.71,-36.13,0,*60
1487387274.53,16642,12.06,73182.8,-12.97,-35.77,-36.19,0,*61
1487387275.83,16643,12.06,73182.8,-12.99,-35.83,-36.25,0,*6A
1487387277.09,16644,12.06,73186.0,-12.99,-35.89,-36.49,0,*6D
1487387278.33,16645,12.06,73182.8,-12.97,-35.65,-36.19,0,*65
1487387279.6,16646,12.06,73186.5,-12.99,-35.71,-36.25,0,*62
1487387280.84,16647,12.06,73180.0,-12.99,-35.89,-36.43,0,*64
1487387282.11,16648,12.06,73178.3,-12.99,-35.83,-36.43,0,*61
1487387283.38,16649,12.06,73180.8,-12.99,-36.07,-36.49,0,*65
1487387284.63,16650,12.06,73178.5,-12.99,-35.89,-36.31,0,*67
1487387285.92,16651,12.06,73178.5,-12.99,-35.83,-36.25,0,*69
1487387287.2,16652,12.06,73180.0,-12.99,-35.95,-36.43,0,*6D
1487387288.46,16653,12.06,73182.0,-12.99,-35.71,-36.13,0,*63
1487387289.71,16654,12.06,73182.8,-12.97,-35.41,-35.89,0,*69
1487387290.98,16655,12.06,73180.3,-12.99,-35.71,-36.25,0,*60
1487387292.25,16656,12.06,73182.0,-12.99,-35.71,-36.13,0,*66